Regional Weather Roundup
Issued by NWS Albany, NY

Home | Current Version | Previous Version | Text Only | Print | Product List | Glossary On
Versions: 1 2 3 4 5 6 7 8 9 10 11 12 13 14 15 16 17 18 19 20 21 22 23 24 25 26 27 28 29 30 31 32 33 34 35 36 37 38 39 40 41 42 43 44 45 46 47 48 49 50
593
ASUS41 KALY 301410
RWRALY

NEW YORK STATE HOURLY WEATHER ROUNDUP
NATIONAL WEATHER SERVICE ALBANY NY
1000 AM EDT THU MAR 30 2017

NOTE: "FAIR" INDICATES FEW OR NO CLOUDS BELOW 12,000 FEET WITH NO
SIGNIFICANT WEATHER AND/OR NO OBSTRUCTIONS TO VISIBILITY.

NYZ032-033-038>043-046>054-057>066-NYZ062>081-082-084-301500-
EAST


CITY           SKY/WX    TMP DP  RH WIND       PRES   REMARKS
ALBANY         PTSUNNY   37  18  46 NE13      30.29F WCI  29
GLENS FALLS    MOSUNNY   37  20  50 N7        30.29F WCI  32
POUGHKEEPSIE   MOSUNNY   39  20  46 N10       30.27S WCI  32
NEWBURGH       MOSUNNY   39  23  52 NE16      30.27S WCI  30
MONTGOMERY     CLOUDY    40  23  50 NE12      30.25S WCI  33
WHITE PLAINS   MOSUNNY   41  21  44 N12       30.23F
ISLIP          PTSUNNY   43  22  43 N16G23    30.24F
NEW YORK CITY  CLOUDY    43  21  41 NE12      30.26S
CENTRAL PARK   CLOUDY    42  22  44 N8        30.29R
$$

NYZ005>009-017-018-044>046-055-056-301500-
CENTRAL


CITY           SKY/WX    TMP DP  RH WIND       PRES   REMARKS
FULTON         MOSUNNY   39  21  48 VRB7      30.27F WCI  34
SYRACUSE       CLOUDY    36  21  54 E7        30.27F WCI  30
ROME           MOSUNNY   34  26  72 CALM      30.30S
ELMIRA         CLOUDY    35  26  69 NE6       30.23F WCI  30
BINGHAMTON     CLOUDY    31  18  58 E5        30.20S WCI  26
MONTICELLO     MOSUNNY   36  21  55 NE3       30.23R
$$

NYZ026>034-041>043-087-301500-
NORTH


CITY           SKY/WX    TMP DP  RH WIND       PRES   REMARKS
WATERTOWN      MOSUNNY   36  26  67 E7        30.29F WCI  30
FORT DRUM      NOT AVBL
MASSENA        SUNNY     36  21  54 NE10      30.34R WCI  28
SARANAC LAKE   PTSUNNY   30  18  60 NE8       30.21S WCI  22
PLATTSBURGH    MOSUNNY   36  17  46 NE8       30.30F WCI  30
$$

NYZ001>004-010>016-019>021-085-301500-
WEST


CITY           SKY/WX    TMP DP  RH WIND       PRES   REMARKS
NIAGARA FALLS  CLOUDY    40  25  55 E15       30.17F WCI  32
BUFFALO        CLOUDY    38  23  55 E18G24    30.17F WCI  28
DUNKIRK        PTSUNNY   41  24  51 E17G25    30.12F
JAMESTOWN      CLOUDY    37  19  48 SE9       30.08F WCI  31
WELLSVILLE     CLOUDY    34  22  61 SE14      30.15F WCI  25
ROCHESTER      CLOUDY    38  20  48 E16       30.25S WCI  29
PENN YAN       CLOUDY    35  25  66 CALM      30.24F
$$

             KEY
       WCI = WIND CHILL INDEX
       VSB = VISIBILITY
       HX  = HEAT INDEX
$$




USA.gov is the U.S. government's official web portal to all federal, state and local government web resources and services.